TimeCDT,TemperatureF,Dew PointF,Humidity,Sea Level PressureIn,VisibilityMPH,Wind Direction,Wind SpeedMPH,Gust SpeedMPH,PrecipitationIn,Events,Conditions,WindDirDegrees,DateUTC
12:52 AM,45.0,34.0,65,30.04,10.0,North,16.1,-,N/A,,Clear,360,2011-11-02 05:52:00
1:52 AM,44.1,33.1,65,30.06,10.0,North,13.8,-,N/A,,Clear,360,2011-11-02 06:52:00
2:52 AM,45.0,32.0,60,30.10,10.0,North,16.1,-,N/A,,Mostly Cloudy,360,2011-11-02 07:52:00
3:52 AM,45.0,32.0,60,30.10,10.0,North,20.7,-,N/A,,Overcast,360,2011-11-02 08:52:00
4:52 AM,45.0,30.9,58,30.12,10.0,North,18.4,25.3,N/A,,Overcast,360,2011-11-02 09:52:00
5:52 AM,45.0,30.9,58,30.14,10.0,North,13.8,-,N/A,,Mostly Cloudy,360,2011-11-02 10:52:00
6:52 AM,45.0,32.0,60,30.16,10.0,North,19.6,25.3,N/A,,Overcast,350,2011-11-02 11:52:00
7:52 AM,44.1,30.9,60,30.17,10.0,North,28.8,34.5,N/A,,Overcast,360,2011-11-02 12:52:00
9:14 AM,39.2,35.6,87,30.21,5.0,North,15.0,-,0.02,Rain,Rain,10,2011-11-02 14:14:00
9:44 AM,41.0,35.6,81,30.20,10.0,NNE,17.3,25.3,0.03,,Overcast,20,2011-11-02 14:44:00
9:52 AM,41.0,36.0,82,30.22,10.0,NNE,13.8,23.0,0.03,,Overcast,30,2011-11-02 14:52:00
10:52 AM,44.1,36.0,73,30.20,10.0,NNE,11.5,-,N/A,,Clear,20,2011-11-02 15:52:00
11:52 AM,44.1,35.1,71,30.21,10.0,NNW,18.4,-,N/A,,Mostly Cloudy,340,2011-11-02 16:52:00
12:52 PM,44.1,33.1,65,30.21,10.0,North,15.0,-,N/A,,Overcast,350,2011-11-02 17:52:00
1:52 PM,45.0,33.1,63,30.19,10.0,NNW,15.0,-,N/A,,Overcast,340,2011-11-02 18:52:00
2:52 PM,45.0,32.0,60,30.21,10.0,North,16.1,24.2,N/A,,Overcast,350,2011-11-02 19:52:00
3:52 PM,45.0,30.9,58,30.21,10.0,NNW,15.0,-,N/A,,Mostly Cloudy,340,2011-11-02 20:52:00
4:52 PM,45.0,27.0,49,30.19,10.0,North,19.6,29.9,N/A,,Scattered Clouds,350,2011-11-02 21:52:00
5:52 PM,44.1,26.1,49,30.22,10.0,North,13.8,-,N/A,,Clear,350,2011-11-02 22:52:00
6:52 PM,42.1,26.1,53,30.25,10.0,NNW,11.5,-,N/A,,Clear,340,2011-11-02 23:52:00
7:52 PM,41.0,26.1,55,30.26,10.0,NNW,12.7,-,N/A,,Clear,340,2011-11-03 00:52:00
8:52 PM,39.0,26.1,60,30.25,10.0,NNW,15.0,-,N/A,,Clear,340,2011-11-03 01:52:00
9:52 PM,36.0,26.1,67,30.26,10.0,North,11.5,-,N/A,,Clear,350,2011-11-03 02:52:00
10:52 PM,35.1,25.0,67,30.27,10.0,North,11.5,-,N/A,,Clear,350,2011-11-03 03:52:00
11:52 PM,35.1,25.0,67,30.25,10.0,North,13.8,-,N/A,,Clear,350,2011-11-03 04:52:00